Location: Mannheim
(49.4880°N, 8.4650°E)
Time: 06:27:00
(UTC+01:00)

ISS - Visible Passes

Search period start: 14 December 2025 00:00
Search period end: 24 December 2025 00:00
Orbit: 416 x 420 km, 51.6° (Epoch: 13 December)

Date Brightness Start Highest point End Pass type
(mag) Time Alt. Az. Time Alt. Az. Time Alt. Az.
14 Dec -0.9 06:26:35 10° S 06:29:01 19° SE 06:31:28 10° E visible
15 Dec -0.7 05:39:44 10° SSE 05:41:12 12° SE 05:42:41 10° ESE visible
15 Dec -3.0 07:14:06 10° SW 07:17:24 56° SSE 07:20:44 10° ENE visible
16 Dec -2.4 06:26:40 13° SW 06:29:27 38° SSE 06:32:37 10° E visible
17 Dec -1.9 05:41:13 26° SSE 05:41:29 26° SE 05:44:23 10° E visible
17 Dec -3.8 07:14:38 10° WSW 07:18:01 84° NNW 07:21:23 10° ENE visible
18 Dec -0.3 04:55:32 12° E 04:55:32 12° E 04:55:55 10° E visible
18 Dec -3.7 06:28:29 32° WSW 06:29:53 75° SSE 06:33:17 10° ENE visible
19 Dec -2.5 05:42:35 41° ESE 05:42:35 41° ESE 05:45:06 10° ENE visible
19 Dec -3.6 07:15:32 12° W 07:18:35 61° N 07:21:56 10° ENE visible
20 Dec -0.3 04:56:34 12° E 04:56:34 12° E 04:56:51 10° E visible
20 Dec -3.8 06:29:30 45° W 06:30:21 70° NNW 06:33:44 10° ENE visible
21 Dec -2.3 05:43:21 37° ENE 05:43:21 37° ENE 05:45:31 10° ENE visible
21 Dec -3.5 07:16:16 14° WNW 07:19:04 57° N 07:22:24 10° E visible
22 Dec -0.3 04:57:07 11° ENE 04:57:07 11° ENE 04:57:16 10° ENE visible
22 Dec -3.6 06:30:02 44° NW 06:30:46 58° N 06:34:06 10° ENE visible
23 Dec -2.2 05:43:44 33° ENE 05:43:44 33° ENE 05:45:48 10° ENE visible
23 Dec -3.7 07:16:38 14° WNW 07:19:25 70° NNE 07:22:47 10° E visible
